Location: Cortos
(40.7190°N, 4.5893°W)
Time: 04:27:01
(UTC+00:00)

ERS-1 Rocket - Pass Details

Date: 05 July 2020
Orbit: 752 x 758 km, 98.5° (Epoch: 11 August)

Event Time Altitude Azimuth Distance (km) Brightness Sun altitude
Exits shadow 20:56:51 13° 116° (ESE) 2,103 4.7 -10.6°
Maximum altitude 21:00:21 26° 66° (ENE) 1,483 4.3 -11.0°
Drops below altitude 10° 21:04:27 10° 12° (NNE) 2,296 5.9 -11.6°
Sets 21:07:05 0° 360° (N) 3,225 7.0 -12.0°
